"Pseudo-MPEC" for P117MUQ

Created 2020 Oct 22 22:07:22 UT using Find_Orb

Click here for an explanation of pseudo-MPECs

 
 Astrometry: 
     P117MUQ  C2020 10 14Mls.4=mLGJyVKlNbAstrometry0m#.?w(b?$0`g7R:AWmGYqiCG=F51
     P117MUQ  C2020 10 14_W0?)9^Gu@SdZtg4.FIUYA0HWe#4u?TX3l%redacted;bl0Z62G%F51
     P117MUQ  C2020 10 144/%^e^YO`w,%@TsN2,tko@keQ!cMR]_6CIQ]F7b1ps:(4tOU?:`EF51
     P117MUQ  C2020 10 16oIclickMPU05kf3nqpnb3ns)h32HH`QW%k=K`@xjvbA(9jS/^;BSF51
     P117MUQ  C2020 10 164LuH8CJxN[#?R(YrZJHBPD$C4WRrLOKaUcmCgkqHHjQ$L1NO.XsfF51
     P117MUQ  C2020 10 20!aD-YJ6_ek_N^]o)TqRyK]#Rn+'V=TCr;A%tkYWa?_F/)0[cRrf*F51
     P117MUQ  C2020 10 20AKewh?t`Z;@Ta6hrwaWwcf'MG7y5W]V)H-Kg(2!w,/^BwVs^hq!.F51
     P117MUQ  C2020 10 20ROUn@.]wE9mG,4Or5L$EeFvA?[cj\rBe'7+6t)[hc)io=rg-xE,cF52
     P117MUQ  C2020 10 20k(_ecHUtR?CK8=.M_KVNuNF[Ebgb-IGL3J\gD4,FW1^Ns24EB@p=F51
     P117MUQ  C2020 10 226+bxL$`vL2cvnP@\6g9%Buk0@4L:^CQD_)pdil6V/f$_`aPMT,-vF51
     P117MUQ  C2020 10 22'x`fg%0GIp+?ZNfJ*u6c5PJeX$qeUR=;T*\KcmL2cWQw`qGDm7-(F51
     P117MUQ  C2020 10 22gWGEhere6rdE$(:Yfw^Oj0a-Bl*\d+Wv49cE:c52MZ6UOIuL-JprF51
     P117MUQ  C2020 10 221#nXaPBF0SBxlfor_D,HYrPnb+Cf[oM+?EqexplanationvmO7wqF51

Station data:
(F51) Pan-STARRS 1, Haleakala  (N20.707235 W156.255910)  US/Hawaii.
   Observers N. Primak, A. Schultz, S. Watters, J. Thiel, T. Goggia. Measurer
   PS1 Science Consortium. 1.8-m Ritchey-Chrétien + CCD.
(F52) Pan-STARRS 2, Haleakala  (N20.707384 W156.255910)  US/Hawaii. 1.8-m
   Ritchey-Chrétien + CCD.

Orbital elements:  P117MUQ
   Perihelion 2020 Dec 16.942224 +/- 0.0341 TT = 22:36:48 (JD 2459200.442224)
Epoch 2020 Oct 22.0 TT = JDT 2459144.5   Earth MOID: 0.0144   Ma: 0.0343
M 323.16579382 +/- 0.13             (J2000 ecliptic)          AutoNEOCP
n   0.65843299 +/- 0.00199          Peri.   19.29864 +/- 0.044
a   1.30856407 +/- 0.00264          Node    72.29186 +/- 0.037
e   0.2740360 +/- 0.00156           Incl.    3.55379 +/- 0.016
P   1.50/546.74d           H 25.9   G  0.15   U  8.6  
q 0.94997034 +/- 0.00013    Q 1.66715779 +/- 0.00544
From 13 observations 2020 Oct. 14-22; mean residual 0".09
Residuals in arcseconds: 
201014 F51  .00   .13+    201020 F51  .09-  .04-    201022 F51  .05-  .10+    
201014 F51  .01+  .08+    201020 F51  .14+  .08+    201022 F51  .00   .08-    
201014 F51  .08+  .08-    201020 F52  .09+  .01+    201022 F51  .14+  .06-    
201016 F51  .14-  .02-    201020 F51  .15-  .04-    
201016 F51  .04+  .14-    201022 F51  .10-  .08+    

Ephemerides (geocentric):
Date (UTC) HH   RA              Dec         delta   r     elong  mag " sig PA
---- -- -- --  -------------   -----------  ------ ------ -----  --- ---- ---
2020 10 22 22  03 24 41.983   -12 56 58.92  .08658 1.0680 146.3 22.1 .470 164
2020 10 22 23  03 24 52.378   -12 57 51.69  .08643 1.0679 146.2 22.1 .477 164
2020 10 23 00  03 25 02.804   -12 58 44.52  .08628 1.0677 146.2 22.1 .485 164
2020 10 23 01  03 25 13.261   -12 59 37.41  .08614 1.0676 146.2 22.1 .492 164
2020 10 23 02  03 25 23.749   -13 00 30.36  .08599 1.0674 146.2 22.1 .500 164
2020 10 23 03  03 25 34.269   -13 01 23.36  .08584 1.0673 146.1 22.1 .508 164
2020 10 23 04  03 25 44.819   -13 02 16.43  .08569 1.0671 146.1 22.1 .515 165
2020 10 23 05  03 25 55.401   -13 03 09.55  .08555 1.0670 146.1 22.1 .523 165
2020 10 23 06  03 26 06.015   -13 04 02.72  .08540 1.0668 146.1 22.1 .531 165
2020 10 23 07  03 26 16.660   -13 04 55.96  .08525 1.0666 146.1 22.1 .539 165
2020 10 23 08  03 26 27.337   -13 05 49.25  .08511 1.0665 146.0 22.1 .547 165
2020 10 23 09  03 26 38.047   -13 06 42.61  .08496 1.0663 146.0 22.0 .555 165
2020 10 23 10  03 26 48.789   -13 07 36.02  .08482 1.0662 146.0 22.0 .563 166
2020 10 23 11  03 26 59.563   -13 08 29.49  .08467 1.0660 146.0 22.0 .571 166
2020 10 23 12  03 27 10.369   -13 09 23.02  .08452 1.0659 145.9 22.0 .579 166
2020 10 23 13  03 27 21.209   -13 10 16.60  .08438 1.0657 145.9 22.0 .587 166
2020 10 23 14  03 27 32.081   -13 11 10.25  .08423 1.0656 145.9 22.0 .595 166
2020 10 23 15  03 27 42.986   -13 12 03.96  .08409 1.0654 145.9 22.0 .604 166
2020 10 23 16  03 27 53.925   -13 12 57.72  .08394 1.0652 145.8 22.0 .612 167
2020 10 23 17  03 28 04.897   -13 13 51.55  .08380 1.0651 145.8 22.0 .621 167
2020 10 23 18  03 28 15.902   -13 14 45.43  .08365 1.0649 145.8 22.0 .629 167
2020 10 23 19  03 28 26.941   -13 15 39.37  .08350 1.0648 145.8 22.0 .638 167
2020 10 23 20  03 28 38.014   -13 16 33.37  .08336 1.0646 145.7 22.0 .646 167
2020 10 23 21  03 28 49.121   -13 17 27.44  .08321 1.0645 145.7 22.0 .655 168
2020 10 23 22  03 29 00.263   -13 18 21.56  .08307 1.0643 145.7 22.0 .664 168
2020 10 23 23  03 29 11.438   -13 19 15.74  .08292 1.0642 145.7 22.0 .673 168
2020 10 24 00  03 29 22.648   -13 20 09.98  .08278 1.0640 145.6 22.0 .682 168
2020 10 24 01  03 29 33.893   -13 21 04.28  .08264 1.0639 145.6 22.0 .691 168
2020 10 24 02  03 29 45.173   -13 21 58.65  .08249 1.0637 145.6 22.0 .700 169
2020 10 24 03  03 29 56.488   -13 22 53.07  .08235 1.0635 145.5 22.0 .709 169
2020 10 24 04  03 30 07.838   -13 23 47.55  .08220 1.0634 145.5 22.0 .718 169
2020 10 24 05  03 30 19.223   -13 24 42.09  .08206 1.0632 145.5 22.0 .727 169
2020 10 24 06  03 30 30.644   -13 25 36.70  .08191 1.0631 145.5 22.0 .736 169
2020 10 24 07  03 30 42.101   -13 26 31.36  .08177 1.0629 145.4 22.0 .746 170
2020 10 24 08  03 30 53.593   -13 27 26.09  .08163 1.0628 145.4 22.0 .755 170
2020 10 24 09  03 31 05.122   -13 28 20.88  .08148 1.0626 145.4 22.0 .765 170
2020 10 24 10  03 31 16.687   -13 29 15.72  .08134 1.0625 145.4 22.0 .774 170
2020 10 24 11  03 31 28.288   -13 30 10.63  .08119 1.0623 145.3 22.0 .784 171
2020 10 24 12  03 31 39.926   -13 31 05.60  .08105 1.0622 145.3 22.0 .794 171
2020 10 24 13  03 31 51.601   -13 32 00.63  .08091 1.0620 145.3 22.0 .804 171
2020 10 24 14  03 32 03.313   -13 32 55.73  .08076 1.0618 145.3 22.0 .814 171
2020 10 24 15  03 32 15.061   -13 33 50.88  .08062 1.0617 145.2 22.0 .823 171
2020 10 24 16  03 32 26.848   -13 34 46.10  .08048 1.0615 145.2 21.9 .833 172
2020 10 24 17  03 32 38.672   -13 35 41.38  .08033 1.0614 145.2 21.9 .844 172
2020 10 24 18  03 32 50.533   -13 36 36.72  .08019 1.0612 145.1 21.9 .854 172
2020 10 24 19  03 33 02.433   -13 37 32.12  .08005 1.0611 145.1 21.9 .864 172
2020 10 24 20  03 33 14.370   -13 38 27.58  .07991 1.0609 145.1 21.9 .874 173
2020 10 24 21  03 33 26.346   -13 39 23.11  .07976 1.0608 145.1 21.9 .885 173